Regional Weather Roundup
Issued by NWS

Home | Current Version | Previous Version | Text Only | Print | Product List | Glossary Off
Versions: 1 2 3 4 5 6 7 8 9 10 11 12 13 14 15 16 17 18 19 20 21 22 23 24 25 26 27 28 29 30 31 32 33 34 35 36 37 38 39 40 41 42 43 44 45 46 47 48

000
ASUS43 KMPX 042010
RWRMN
WEATHER ROUNDUP FOR MINNESOTA
NATIONAL WEATHER SERVICE TWIN CITIES/CHANHASSEN MN
300 PM CDT FRI SEP 04 2015


NOTE: "FAIR" INDICATES FEW OR NO CLOUDS BELOW 12,000 FEET WITH NO
SIGNIFICANT WEATHER AND/OR OBSTRUCTIONS TO VISIBILITY. N/A MEANS
CURRENT SKY AND/OR WEATHER CONDITIONS ARE NOT AVAILABLE.

MNZ060>063-068>070-042100-
   Twin Cities Metro

CITY           SKY/WX    TMP DP  RH WIND       PRES   REMARKS
TWIN CITIES    MOSUNNY   88  73  61 SE15G22   29.90F HX  95
ST PAUL        SUNNY     86  73  65 SE14      29.90F HX  93
CRYSTAL        SUNNY     89  72  56 SE12      29.88F HX  96
BLAINE         PTSUNNY   90  73  58 SE14G20   29.90F HX  98
LAKEVILLE      MOSUNNY   88  73  62 SE6G16    29.91F HX  96
EDEN PRAIRIE   SUNNY     90  73  57 SE14      29.88F HX  98
SOUTH ST PAUL  SUNNY     88  72  58 SE6       29.91F HX  94
LAKE ELMO      FAIR      86  73  66 SE13      29.93F HX  93
$$
MNZ001>005-007-008-013>017-022>024-027-028-042100-
   Northwest Minnesota

CITY           SKY/WX    TMP DP  RH WIND       PRES   REMARKS
BEMIDJI        PTSUNNY   80  70  70 SE12      29.87S
HALLOCK        CLOUDY    73  72  94 SE7       29.79R
ROSEAU         CLOUDY    79  72  78 S10       29.84R
WARROAD        PTSUNNY   82  73  74 S13G20    29.83R
THIEF RVR FALL CLOUDY    82  73  74 S15       29.82R
CROOKSTON      PTSUNNY   84  70  61 SW17      29.81R
FOSSTON        CLOUDY    81  68  65 SE13G20   29.84S
DETROIT LAKES  LGT RAIN  77  70  78 S7        29.86R
MOORHEAD       DRIZZLE   79  72  78 S7        29.82S
PARK RAPIDS    CLOUDY    84  70  62 SE14      29.86F
MAHNOMEN       FAIR      78  72  81 SE6       29.84R
$$
MNZ006-009>011-018-025>026-042100-
   North Central Minnesota

CITY           SKY/WX    TMP DP  RH WIND       PRES   REMARKS
BAUDETTE       MOSUNNY   85  71  63 SE14G25   29.84R HX  90
FLAG ISLAND    CLOUDY    79  70  73 SE6       29.83S
INTL FALLS     PTSUNNY   84  70  62 SE17G23   29.89F
WASKISH        PTSUNNY   82  72  69 SE7       29.87R
BIG FORK       SUNNY     84  70  61 S12G18    29.89F
LONGVILLE      PTSUNNY   82  70  65 S10       29.89F
GRAND RAPIDS     N/A     82  70  65 SE13G22   29.90F
CRANE LAKE     SUNNY     82  63  51 S7        29.94F
ORR            MOSUNNY   84  64  51 SE13G18   29.90F
COOK           MOSUNNY   82  68  61 SE13G20   29.94F
WALKER         FAIR      80  70  73 SE8       29.87F
$$
MNZ012-019>021-037-042100-
   Northeast Minnesota

CITY           SKY/WX    TMP DP  RH WIND       PRES   REMARKS
DULUTH         MOSUNNY   76  65  68 E14       29.98F
ELY            SUNNY     82  57  42 SE13      29.97F
HIBBING        SUNNY     82  69  64 SE12G20   29.94F
EVELETH        SUNNY     81  66  61 SE13      29.97S
DULUTH HARBOR  SUNNY     64  61  88 E8        29.98F
TWO HARBORS    MOSUNNY   79  68  69 E13       29.97F
SILVER BAY     SUNNY     73  63  68 NE9       30.00F
GRAND MARAIS     N/A     63  56  78 E10       30.03S
G MARAIS ARPRT SUNNY     73  57  56 SE8G17    30.08F
$$
MNZ029>031-032-039>041-046>048-054>057-064-042100-
   West Central Minnesota

CITY           SKY/WX    TMP DP  RH WIND       PRES   REMARKS
FERGUS FALLS   CLOUDY    79  72  78 SE6       29.83F
WHEATON        CLOUDY    81  72  74 E8        29.85F
MORRIS         CLOUDY    82  72  69 SE3       29.85R
ALEXANDRIA     CLOUDY    84  71  65 SE9       29.88F
ELBOW LAKE     LGT RAIN  78  72  81 SE6       29.85S
WADENA         CLOUDY    82  72  69 SE13      29.85F
GLENWOOD       PTSUNNY   88  72  58 E13       29.86F HX  94
APPLETON       CLOUDY    82  72  69 SE6       29.84S
BENSON         PTSUNNY   84  70  61 S5        29.85R
ORTONVILLE     CLOUDY    82  72  69 SE6       29.83S
MADISON        CLOUDY    81  72  74 E9        29.83F
WILLMAR        FAIR      86  72  62 SE8       29.87F HX  92
$$
MNZ033>034-036-042>043-049>051-058-059-042100-
   Central Minnesota

CITY           SKY/WX    TMP DP  RH WIND       PRES   REMARKS
ST CLOUD       MOSUNNY   86  73  65 SE14      29.88F HX  93
SAUK CENTRE    FAIR      85  73  67 SE9       29.87F HX  92
PAYNESVILLE    PTSUNNY   87  70  57 E10       29.88F HX  92
AITKIN         MOSUNNY   88  73  62 SE12      29.89F HX  96
PINE RIVER     PTSUNNY   81  72  74 SE12      29.92F
BRAINERD       PTSUNNY   84  70  62 SE10      29.89F
STAPLES        CLOUDY    84  72  65 SE10      29.86F
LONG PRAIRIE   FAIR      84  72  65 SE13      29.88S
LITTLE FALLS   PTSUNNY   84  70  61 SE9G16    29.89S
LITCHFIELD     MOSUNNY   90  73  58 SE10      29.88S HX  98
BUFFALO        MOSUNNY   87  72  59 SE9       29.90S HX  93
MAPLE LAKE     MOSUNNY   87  76  71 SE7       29.90S HX  97
$$
MNZ037-044-045-052-053-042100-
   East Central Minnesota

CITY           SKY/WX    TMP DP  RH WIND       PRES   REMARKS
PRINCETON      SUNNY     88  72  58 E13       29.90F HX  94
MORA           MOSUNNY   86  72  62 SE9G16    29.92F HX  92
CAMBRIDGE        N/A     88  72  58 SE9G16    29.89F HX  94
RUSH CITY      SUNNY     85  72  64 SE12G17   29.92F HX  91
MOOSE LAKE     MOSUNNY   81  70  69 SE7       29.92F
HINCKLEY       LGT RAIN  84  72  65 SE7       29.93F
CLOQUET        SUNNY     73  63  68 E13       29.97F
MCGREGOR       MOSUNNY   84  70  61 SE15      29.92F
$$
MNZ071>073-080-081-089-090-097-098-042100-
   Southwest Minnesota

CITY           SKY/WX    TMP DP  RH WIND       PRES   REMARKS
MONTEVIDEO     PTSUNNY   86  72  62 S9        29.87R HX  92
GRANITE FALLS  PTSUNNY   84  71  65 SE13      29.87S
CANBY          CLOUDY    81  72  72 SE6       29.85F THUNDER
MARSHALL       CLOUDY    82  66  57 S16       29.88S
REDWOOD FALLS  MOSUNNY   87  69  54 S9        29.86F HX  91
OLIVIA         MOSUNNY   84  66  54 S9        29.86F
PIPESTONE      CLOUDY    73  68  83 S9        29.89F
WINDOM         CLOUDY    82  70  65 SE7       29.90F
WORTHINGTON    CLOUDY    77  68  73 SE7       29.91S
JACKSON        CLOUDY    82  70  65 S9        29.93R
TRACY          CLOUDY    82  72  72 S7        29.89R
SLAYTON        CLOUDY    77  71  81 CALM      29.92R
$$
MNZ065>067-074>077-082>085-091>093-042100-
   South Central Minnesota

CITY           SKY/WX    TMP DP  RH WIND       PRES   REMARKS
MANKATO        MOSUNNY   88  73  62 S13       29.90S HX  96
NEW ULM        MOSUNNY   88  72  58 S9        29.89S HX  94
ST JAMES       MOSUNNY   88  73  62 SE8       29.90S HX  96
FAIRMONT       MOSUNNY   84  70  61 S12       29.91S
GLENCOE        MOSUNNY   91  75  58 S9        29.89S HX 102
FARIBAULT      MOSUNNY   88  73  62 SE10G17   29.92F HX  96
OWATONNA       MOSUNNY   88  72  58 SE14      29.93S HX  94
WASECA         MOSUNNY   86  72  62 SE10G16   29.93F HX  92
ALBERT LEA     MOSUNNY   88  72  58 S13       29.93F HX  94
$$
MNZ078>079-086>088-094>096-042100-
   Southeast Minnesota

CITY           SKY/WX    TMP DP  RH WIND       PRES   REMARKS
ROCHESTER      SUNNY     86  72  62 S12       29.98R HX  92
RED WING       SUNNY     90  70  51 SE13      29.93S HX  95
STANTON        MOSUNNY   88  72  58 SE7       29.91F HX  95
DODGE CENTER   MOSUNNY   86  72  62 SE12      29.96S HX  92
WINONA         MOSUNNY   90  72  55 SE10      29.96S HX  96
AUSTIN         MOSUNNY   88  73  62 SE7       29.95S HX  96
PRESTON        MOSUNNY   86  70  59 SE8G16    29.99S HX  90
$$
ABBREVIATIONS USED IN REMARKS
   TC - TEMPERATURES IN CELSIUS
  WCI - WIND CHILL INDEX
   HX - HEAT INDEX
  VSB - VISIBILITY
$$



USA.gov is the U.S. government's official web portal to all federal, state and local government web resources and services.